KV6O Weather Reports


time (UTC)temp
C
wind
direction
speed
KPH
gust
KPH
rain 1hr
cm
rain 24hr
cm
rain mn
cm
humidity
%
barometer
mb
20220525142415 -17 0 0.0 0.0 0.00 0.00 0.00 100
20220525141615 -17 0 0.0 0.0 0.00 0.00 0.00 100
20220525140813 2 6 17.7 19.3 0.00 0.00 1.47 84
20220525140012 2 330 16.1 25.7 0.00 0.00 1.45 84
20220525135615 -17 0 0.0 0.0 0.00 0.00 0.00 100
20220525134814 2 350 11.3 29.0 0.00 0.00 1.45 85
20220525134014 2 13 19.3 27.4 0.00 0.00 1.45 84
20220525133213 2 13 32.2 30.6 0.00 0.00 1.45 84
20220525132416 -17 0 0.0 0.0 0.00 0.00 0.00 100
20220525131615 -17 0 0.0 0.0 0.00 0.00 0.00 100
20220525130812 1 333 14.5 35.4 0.00 0.00 1.45 85
20220525130014 1 13 12.9 29.0 0.00 0.00 1.45 86
20220525125612 1 359 16.1 33.8 0.00 0.00 1.45 85
20220525124815 -17 0 0.0 0.0 0.00 0.00 0.00 100
20220525124015 -17 0 0.0 0.0 0.00 0.00 0.00 100
20220525123214 -17 0 0.0 0.0 0.00 0.00 0.00 100
20220525122414 1 350 12.9 37.0 0.00 0.00 1.45 86
20220525121616 -17 0 0.0 0.0 0.00 0.00 0.00 100
20220525120814 -17 0 0.0 0.0 0.00 0.00 0.00 100
20220525120016 -17 0 0.0 0.0 0.00 0.00 0.00 100
20220525115615 -17 0 0.0 0.0 0.00 0.00 0.00 100
20220525114814 1 13 11.3 25.7 0.00 0.00 1.45 87
20220525114014 -17 0 0.0 0.0 0.00 0.00 0.00 100
20220525113212 1 354 19.3 35.4 0.00 0.00 1.45 87
20220525112413 1 354 12.9 37.0 0.00 0.00 1.45 88
20220525111613 1 3 19.3 29.0 0.00 0.00 1.45 89
20220525110812 1 319 14.5 43.5 0.00 0.00 1.45 90
20220525110015 1 14 16.1 27.4 0.00 0.00 1.45 91
20220525105612 1 343 16.1 29.0 0.00 0.00 1.45 91
20220525104814 0 330 12.9 22.5 0.00 0.00 1.45 92
20220525104014 0 352 12.9 24.1 0.00 0.00 1.45 92
20220525103214 0 328 16.1 17.7 0.00 0.00 1.45 92
20220525102412 0 14 11.3 20.9 0.00 0.00 1.45 93
20220525101613 0 339 12.9 25.7 0.00 0.00 1.45 92
20220525100812 0 3 17.7 24.1 0.00 0.00 1.45 92
20220525100014 0 350 16.1 32.2 0.00 0.00 1.45 92
20220525095615 -17 0 0.0 0.0 0.00 0.00 0.00 100
20220525094813 0 4 9.7 27.4 0.00 0.00 1.45 92
20220525094013 0 350 11.3 32.2 0.00 0.00 1.45 92
20220525093213 0 344 11.3 27.4 0.00 0.00 1.45 92
20220525092413 0 346 16.1 20.9 0.00 0.00 1.45 93
20220525091613 0 346 14.5 20.9 0.00 0.00 1.45 93
20220525090813 0 315 17.7 25.7 0.00 0.00 1.45 93
20220525090014 -17 0 0.0 0.0 0.00 0.00 0.00 100
20220525085614 -17 0 0.0 0.0 0.00 0.00 0.00 100
20220525084814 0 3 9.7 19.3 0.00 0.00 1.45 95
20220525084013 0 16 16.1 25.7 0.00 0.00 1.45 96
20220525083214 0 354 9.7 17.7 0.00 0.00 1.45 96
20220525082412 0 4 12.9 25.7 0.00 0.00 1.45 97
20220525081614 -17 0 0.0 0.0 0.00 0.00 0.00 100
20220525080814 0 20 12.9 22.5 0.00 0.00 1.45 99
20220525080013 0 106 0.0 4.8 0.00 0.00 1.45 99
20220525075612 0 42 0.0 3.2 0.00 0.00 1.45 99
20220525074814 0 0 3.2 0.0 0.00 0.00 1.45 98
20220525074013 0 0 0.0 0.0 0.00 0.00 1.45 98
20220525073211 0 0 0.0 0.0 0.00 0.00 1.45 97
20220525072412 0 267 1.6 6.4 0.00 0.00 1.45 98
20220525071613 0 17 0.0 12.9 0.00 0.00 1.45 97
20220525070813 0 335 0.0 20.9 0.00 0.00 1.45 98
20220525070014 0 353 4.8 17.7 0.00 0.00 1.45 97
20220525065612 0 353 6.4 17.7 0.00 0.00 1.45 98
20220525064813 0 357 14.5 22.5 0.00 0.00 1.45 98
20220525064015 -17 0 0.0 0.0 0.00 0.00 0.00 100
20220525063212 0 11 6.4 17.7 0.00 0.00 1.45 99
20220525062414 0 30 4.8 12.9 0.00 0.00 1.45 99
20220525061615 0 30 6.4 12.9 0.00 0.00 1.45 100
20220525060812 0 48 6.4 8.0 0.00 0.00 1.45 100
20220525060015 0 3 0.0 14.5 0.00 0.00 1.45 100
20220525055613 0 3 0.0 14.5 0.00 0.00 1.45 100
20220525054813 0 32 4.8 9.7 0.00 0.00 1.45 100
20220525054015 -17 0 0.0 0.0 0.00 0.00 0.00 100
20220525053214 0 68 1.6 3.2 0.00 0.00 1.45 100
20220525052413 0 21 0.0 1.6 0.00 0.00 1.45 100
20220525051613 0 17 0.0 4.8 0.00 0.00 1.45 100
20220525050812 -17 0 0.0 0.0 0.00 0.00 0.00 100
20220525050012 0 4 9.7 11.3 0.00 0.00 1.45 99
20220525045616 -17 0 0.0 0.0 0.00 0.00 0.00 100
20220525044815 -17 0 0.0 0.0 0.00 0.00 0.00 100
20220525044015 -17 0 0.0 0.0 0.00 0.00 0.00 100
20220525043213 0 11 6.4 14.5 0.00 0.00 1.45 99
20220525042414 -17 0 0.0 0.0 0.00 0.00 0.00 100
20220525041613 0 8 6.4 16.1 0.00 0.00 1.45 99
20220525040815 -17 0 0.0 0.0 0.00 0.00 0.00 100
20220525040013 1 24 9.7 12.9 0.00 0.00 1.45 100
20220525035614 1 24 6.4 12.9 0.00 0.00 1.45 100
20220525034814 1 10 4.8 11.3 0.00 0.00 1.45 100
20220525034015 -17 0 0.0 0.0 0.00 0.00 0.00 100
20220525033214 -17 0 0.0 0.0 0.00 0.00 0.00 100
20220525032413 1 353 6.4 9.7 0.00 0.00 1.45 100
20220525031612 1 353 6.4 9.7 0.00 0.00 1.45 99
20220525030813 1 360 9.7 12.9 0.00 0.00 1.45 99
20220525030014 1 4 8.0 11.3 0.00 0.00 1.45 99
20220525025612 1 4 4.8 11.3 0.00 0.00 1.45 99
20220525024813 1 3 6.4 11.3 0.00 0.00 1.45 100
20220525024013 1 352 9.7 9.7 0.00 0.00 1.45 100
20220525023213 1 354 8.0 12.9 0.00 0.00 1.45 100
20220525022414 -17 0 0.0 0.0 0.00 0.00 0.00 100
20220525021613 1 357 8.0 9.7 0.00 0.00 1.45 100
20220525020815 -17 0 0.0 0.0 0.00 0.00 0.00 100
20220525020014 1 14 1.6 4.8 0.00 0.00 1.45 99
20220525015614 1 4 0.0 9.7 0.00 0.00 1.45 99
20220525014812 1 41 8.0 11.3 0.00 0.00 1.45 98
20220525014015 -17 0 0.0 0.0 0.00 0.00 0.00 100
20220525013215 1 28 9.7 19.3 0.00 0.00 1.45 98
20220525012415 2 11 8.0 11.3 0.00 0.00 1.45 98
20220525011613 2 21 3.2 11.3 0.00 0.00 1.45 98
20220525010815 -17 0 0.0 0.0 0.00 0.00 0.00 100
20220525010014 2 7 3.2 11.3 0.00 0.00 1.45 98
20220525005613 2 0 8.0 0.0 0.00 0.00 1.45 98
20220525004814 -17 0 0.0 0.0 0.00 0.00 0.00 100
20220525004014 2 11 3.2 6.4 0.00 0.00 1.45 97
20220525003214 2 0 0.0 0.0 0.00 0.00 1.45 97
20220525002415 -17 0 0.0 0.0 0.00 0.00 0.00 100
20220525001614 2 8 1.6 6.4 0.00 0.00 1.45 97
20220525000814 -17 0 0.0 0.0 0.00 0.00 0.00 100
20220525000015 -17 0 0.0 0.0 0.00 0.00 0.00 100
20220524235615 -17 0 0.0 0.0 0.00 0.00 0.00 100
20220524234813 2 0 0.0 0.0 0.00 0.00 1.45 97
20220524234014 -17 0 0.0 0.0 0.00 0.00 0.00 100
20220524233215 -17 0 0.0 0.0 0.00 0.00 0.00 100
20220524232414 3 0 0.0 0.0 0.00 0.00 1.45 96
20220524231614 -17 0 0.0 0.0 0.00 0.00 0.00 100
20220524230814 3 210 0.0 9.7 0.00 0.00 1.45 94
20220524230011 3 192 6.4 9.7 0.00 0.00 1.45 91
20220524225614 3 169 6.4 12.9 0.00 0.00 1.45 90
20220524224813 4 168 1.6 9.7 0.00 0.00 1.45 87
20220524224013 4 189 6.4 11.3 0.00 0.00 1.45 86
20220524223215 -17 0 0.0 0.0 0.00 0.00 0.00 100
20220524222412 3 275 0.0 8.0 0.00 0.00 1.45 92
20220524221611 3 313 0.0 8.0 0.00 0.00 1.45 90
20220524220811 3 0 3.2 0.0 0.00 0.00 1.45 92
20220524220016 -17 0 0.0 0.0 0.00 0.00 0.00 100
20220524215612 3 0 0.0 0.0 0.00 0.00 1.45 93
20220524214816 -17 0 0.0 0.0 0.00 0.00 0.00 100
20220524214015 -17 0 0.0 0.0 0.00 0.00 0.00 100
20220524213214 3 0 0.0 0.0 0.00 0.00 1.45 95
20220524212414 3 0 0.0 0.0 0.00 0.00 1.45 95
20220524211613 -17 0 0.0 0.0 0.00 0.00 0.00 100
20220524210813 3 0 0.0 0.0 0.00 0.00 1.45 95
20220524210014 -17 0 0.0 0.0 0.00 0.00 0.00 100
20220524205612 3 165 0.0 0.0 0.00 0.00 1.45 93
20220524204816 -17 0 0.0 0.0 0.00 0.00 0.00 100
20220524204013 3 0 0.0 0.0 0.00 0.00 1.45 95
20220524203214 3 346 0.0 3.2 0.00 0.00 1.45 95
20220524202414 3 44 0.0 0.0 0.00 0.00 1.45 94
20220524201615 3 17 0.0 4.8 0.00 0.00 1.45 90
20220524200814 -17 0 0.0 0.0 0.00 0.00 0.00 100
20220524200013 3 55 1.6 3.2 0.00 0.00 1.45 93
20220524195612 3 40 0.0 6.4 0.00 0.00 1.45 89
20220524194815 -17 0 0.0 0.0 0.00 0.00 0.00 100
20220524194014 3 347 3.2 4.8 0.00 0.00 1.40 96
20220524193215 2 337 6.4 9.7 0.00 0.00 1.32 97
20220524192413 2 8 0.0 16.1 0.00 0.00 1.27 97
20220524191613 2 10 6.4 12.9 0.00 0.00 1.24 97
20220524190813 2 352 6.4 19.3 0.00 0.00 1.19 97
20220524190015 2 357 6.4 14.5 0.00 0.00 1.14 96
20220524185613 2 20 8.0 11.3 0.00 0.00 1.12 97
20220524184813 3 4 6.4 4.8 0.00 0.00 1.07 96
20220524184012 3 340 0.0 8.0 0.00 0.00 1.02 96
20220524183212 3 30 6.4 9.7 0.00 0.00 0.97 95
20220524182414 2 23 3.2 11.3 0.00 0.00 0.86 96
20220524181613 2 360 8.0 12.9 0.00 0.00 0.74 97
20220524180813 2 360 8.0 9.7 0.00 0.00 0.61 98
20220524180014 2 0 0.0 14.5 0.00 0.00 0.51 98
20220524175613 1 346 4.8 12.9 0.00 0.00 0.46 98
20220524174815 -17 0 0.0 0.0 0.00 0.00 0.00 100
20220524174014 1 332 8.0 17.7 0.00 0.00 0.30 98
20220524173215 -17 0 0.0 0.0 0.00 0.00 0.00 100
20220524172414 -17 0 0.0 0.0 0.00 0.00 0.00 100
20220524171613 1 17 3.2 8.0 0.00 0.00 0.20 99
20220524170813 1 0 0.0 0.0 0.00 0.00 0.18 99
20220524170013 1 0 0.0 0.0 0.00 0.00 0.18 99
20220524165616 -17 0 0.0 0.0 0.00 0.00 0.00 100
20220524164813 0 0 0.0 0.0 0.00 0.00 0.15 99
20220524164015 -17 0 0.0 0.0 0.00 0.00 0.00 100
20220524163213 0 0 0.0 0.0 0.00 0.00 0.13 99
20220524162413 0 0 0.0 0.0 0.00 0.00 0.13 99
20220524161613 -17 0 0.0 0.0 0.00 0.00 0.00 100
20220524160811 0 0 0.0 0.0 0.00 0.00 0.10 99
20220524160012 0 0 0.0 0.0 0.00 0.00 0.10 99
20220524155615 -17 0 0.0 0.0 0.00 0.00 0.00 100
20220524154812 0 0 0.0 0.0 0.00 0.00 0.08 98
20220524154015 -17 0 0.0 0.0 0.00 0.00 0.00 100
20220524153216 -17 0 0.0 0.0 0.00 0.00 0.00 100
20220524152414 0 0 0.0 0.0 0.00 0.00 0.05 99
20220524151613 0 0 0.0 0.0 0.00 0.00 0.05 99
20220524150814 -17 0 0.0 0.0 0.00 0.00 0.00 100
20220524150014 0 0 0.0 0.0 0.00 0.00 0.03 99
20220524145615 0 0 0.0 0.0 0.00 0.00 0.03 99
20220524144813 0 0 0.0 0.0 0.00 0.00 0.03 99
20220524144013 0 0 0.0 0.0 0.00 0.00 0.03 100
20220524143212 0 0 0.0 0.0 0.00 0.00 0.03 99